Location: Dorking
(51.2167°N, 0.3333°W)
Time: 22:49:33
(UTC+00:00)

Daily predictions for brighter satellites

Satellite Brightness Start Highest point End
(mag) Time Altitude Azimuth Time Altitude Azimuth Time Altitude Azimuth
SAR-Lupe-2 3.9 16:27:21 10° SE 16:30:46 45° ENE 16:34:13 10° N
Cosmos 1666 3.2 16:30:01 10° N 16:33:14 31° ENE 16:36:25 10° SE
Spot 4 Rocket 4.3 16:28:15 10° SSE 16:33:23 80° WSW 16:38:34 10° NNW
ARGOS 3.4 16:29:11 10° SSE 16:34:36 80° WSW 16:40:04 10° NNW
Cosmos 1603 4.2 16:30:47 10° NNW 16:36:05 37° NE 16:41:18 10° ESE
PSLV R/B 3.7 16:35:06 10° SSE 16:39:22 83° WSW 16:43:42 10° NNW
Cosmos 1076 Rocket 3.6 16:36:13 10° N 16:40:33 60° ENE 16:44:51 10° SSE
CZ-2C R/B 3.8 16:37:23 10° N 16:42:20 41° WNW 16:47:11 10° SW
Meteor 1-31 Rocket 3.4 16:40:44 10° SE 16:44:02 32° ENE 16:47:24 10° N
Cosmos 1544 2.7 16:42:11 10° N 16:45:28 87° E 16:48:43 10° S
USA 306 3.1 16:43:29 10° W 16:45:34 31° SSW 16:47:30 10° SE
Tsikada Rocket 4.3 16:40:55 10° SSW 16:47:07 72° WNW 16:53:18 10° N
SJ-7 4.3 16:45:02 10° SSE 16:48:59 66° ENE 16:53:00 10° N
SL-16 R/B 3.1 16:43:41 10° NW 16:49:15 56° WSW 16:54:46 10° S
ATLAS CENTAUR R/B 2.4 16:45:36 10° WNW 16:49:17 88° NE 16:56:22 10° ESE
Cosmos 1238 Rocket 3.3 16:46:45 10° SSW 16:50:10 49° WNW 16:53:14 10° N
Cosmos 1602 4.0 16:48:35 10° N 16:52:09 42° ENE 16:55:43 10° SSE
RESURS DK-1 4.0 16:51:19 10° N 16:54:01 17° NE 16:56:12 12° ENE
USA 305 2.9 16:50:24 10° WNW 16:54:12 72° SSW 16:58:01 10° ESE
Cosmos 1607 4.0 16:50:18 10° SW 16:56:39 83° SE 17:03:10 10° NE
Cosmos 1606 4.1 16:54:00 10° SW 16:57:23 36° WNW 17:00:48 10° N
CZ-4B R/B 4.0 16:55:32 10° SE 17:00:05 36° ENE 17:04:33 10° N
Cosmos 1943 3.2 16:54:38 10° NNW 17:00:16 66° NE 17:05:53 10° SE
Helios 1A 4.3 16:58:42 11° NE 17:01:40 21° E 17:04:49 10° SE
ATLAS 2AS CENTAUR R/B 3.1 16:55:18 10° NW 17:02:01 44° NNE 17:08:24 10° E
Cosmos 1782 4.4 16:59:49 10° ESE 17:02:06 15° E 17:03:03 14° ENE
Cosmos 1500 3.0 17:00:22 10° NNW 17:03:55 84° W 17:07:27 10° S
SMAP 3.0 17:02:00 10° SSE 17:06:39 71° ENE 17:11:19 10° N
Helios 1B rocket 2.9 17:03:15 10° S 17:07:08 62° WSW 17:11:05 10° NNW
CZ-4B R/B 3.6 17:06:27 10° SSE 17:10:00 61° ENE 17:13:38 10° N
Cosmos 407 Rocket 3.6 17:06:41 10° NNW 17:11:45 52° ENE 17:16:45 10° SE
SL-16 R/B 4.1 17:07:23 10° N 17:12:47 32° WNW 17:18:11 10° WSW
Cosmos 2297 Rocket 3.6 17:07:50 10° WSW 17:12:54 33° NW 17:18:01 10° NNE
SOZ 4.3 17:12:07 10° WSW 17:14:15 57° SSE 17:16:19 18° E
Radarsat Rocket 4.3 17:09:07 10° SE 17:14:35 43° ENE 17:20:25 10° N
Cosmos 405 Rocket 3.5 17:12:26 10° SSW 17:16:10 53° WNW 17:19:58 10° N
ISS -1.2 17:15:08 10° W 17:17:49 22° SW 17:20:30 10° SSE
Cosmos 2219 3.6 17:13:46 10° SW 17:19:20 63° NW 17:24:58 10° NNE
Cosmos 2251 Rocket 3.5 17:14:14 10° NNW 17:19:33 64° ENE 17:24:53 10° SE
Lacrosse 5 3.2 17:26:03 10° S 17:29:55 22° SE 17:31:43 18° E
COSMO-SKYMED 1 3.5 17:29:30 21° ENE 17:31:12 28° E 17:34:56 10° SSE
Cosmos-2242 3.0 17:27:30 10° S 17:31:46 60° E 17:36:02 10° NNE
Lacrosse 4 Rocket 1.7 17:27:43 10° NW 17:32:04 73° WSW 17:36:18 10° SSE
Cosmos 1833 Rocket 4.0 17:28:43 10° NNW 17:32:44 19° NNE 17:33:48 18° NE
Cosmos 2082 3.9 17:28:46 10° SW 17:34:22 74° WNW 17:39:46 11° NNE
Cosmos 2058 Rocket 4.0 17:30:32 10° SSW 17:34:50 50° WNW 17:39:09 10° N
APEX 2.9 17:37:06 10° S 17:39:52 39° ESE 17:39:57 39° ESE
Meteor 1-25 Rocket 4.1 17:35:38 10° N 17:41:21 78° ENE 17:46:56 10° SSE
Meteor 2-2 Rocket 4.4 17:35:55 10° S 17:41:31 54° E 17:47:15 10° NNE
USA 234 3.7 17:37:35 21° ENE 17:41:41 44° SE 17:47:52 10° SSW
Cosmos 2344 3.7 17:35:09 10° SSW 17:42:22 50° ESE 17:47:05 21° ENE
Cosmos 2221 4.0 17:39:09 10° SE 17:41:02 19° ESE 17:41:02 19° ESE
Cosmos 1190 Rocket 4.0 17:38:36 10° NNW 17:43:52 57° ENE 17:49:04 10° SE
Cosmos 1812 2.4 17:41:10 10° S 17:44:50 78° E 17:47:41 16° NNE
Cosmos 1818 3.9 17:41:08 10° SSW 17:46:16 46° ESE 17:48:46 27° ENE
USA 276 2.3 17:45:47 10° SW 17:48:03 40° SSE 17:48:03 40° SSE
Cosmos 2026 Rocket 4.2 17:42:41 10° SSE 17:48:42 50° E 17:54:48 10° NNE
Cosmos 2195 Rocket 4.5 17:49:32 10° S 17:55:45 65° E 18:01:58 10° NNE
Cosmos 2263 Rocket 2.7 17:55:03 10° SW 18:00:31 56° NW 18:05:03 15° NNE
Cosmos 1844 Rocket 3.1 17:55:26 10° S 18:00:35 40° ESE 18:02:02 34° ENE
CZ-4B R/B 4.4 18:01:43 25° NE 18:01:43 25° NE 18:05:12 10° N
Cosmos 1766 Rocket 3.6 17:58:43 10° N 18:02:59 49° ENE 18:07:11 10° SSE
Cosmos 1092 Rocket 3.9 18:00:05 10° S 18:06:09 67° E 18:12:15 10° NNE
YAOGAN 1 3.1 18:07:03 38° NE 18:07:03 38° NE 18:10:16 10° N
Nadezhda 4 Rocket 4.2 18:00:07 10° SSW 18:06:15 72° WNW 18:12:24 10° N
Cosmos 1933 3.2 18:03:27 10° S 18:07:22 61° E 18:07:55 54° ENE
Cosmos 1420 Rocket 4.4 18:02:57 10° S 18:07:50 41° ESE 18:08:28 39° E
Cosmos 2227 4.1 18:03:21 10° SSW 18:09:07 84° ESE 18:12:32 26° NNE
Cosmos 2227 Rocket 4.0 18:04:49 10° W 18:09:27 25° NW 18:14:00 10° NNE
Cosmos 2082 Rocket 4.0 18:06:36 10° N 18:09:22 15° NNE 18:09:22 15° NNE
ADEOS 3.4 18:06:13 10° SSE 18:11:25 73° ENE 18:16:39 10° NNW
Meteor 1-5 Rocket 4.1 18:06:23 10° N 18:12:04 71° ENE 18:17:54 10° SSE
Cosmos 1624 Rocket 4.3 18:10:45 10° S 18:15:38 43° ESE 18:15:39 43° ESE
BREEZE-M DEB (TANK) 2.9 18:13:55 10° WSW 18:15:04 31° SW 18:15:04 31° SW
SKYMED 2 3.4 18:18:08 43° NNE 18:19:30 78° ESE 18:23:51 10° S
CZ-4B R/B 3.5 18:20:41 44° NNE 18:20:41 44° NNE 18:23:43 10° N
SL-08 R/B 3.1 18:25:44 63° E 18:25:54 64° ESE 18:30:29 10° S
Cosmos 192 4.2 18:23:10 10° SSW 18:28:01 70° ESE 18:28:35 63° ENE
RESURS DK-1 2.5 18:28:21 10° NNW 18:31:56 66° NNW 18:31:56 66° NNW
Meteor 2-17 Rocket 4.5 18:28:37 10° SSW 18:34:46 81° W 18:40:56 10° N
Helios 1A 3.8 18:35:01 24° N 18:37:11 48° WNW 18:41:10 10° SW
Cosmos 1782 3.3 18:33:42 10° SSW 18:37:32 56° WNW 18:38:15 47° NW
Cosmos 676 Rocket 3.9 18:32:27 10° NNW 18:37:48 90° WSW 18:40:05 35° SSE
EO 1 Delta rocket 4.4 18:43:41 10° S 18:50:16 78° W 18:55:31 10° NNW
ATLAS 2AS CENTAUR R/B 2.8 18:46:29 10° NW 18:53:24 70° SW 18:56:38 32° SSE
CZ-4B DEB 4.2 18:53:03 23° SSE 18:56:38 83° WSW 19:02:15 10° NNW
Cosmos 1241 Rocket 4.4 18:54:32 10° SSW 19:00:35 68° SE 19:00:35 68° SE
ADEOS Rocket 4.2 19:09:44 27° N 19:09:44 27° N 19:12:23 10° N
COSMO-SKYMED 1 3.9 19:06:43 35° NW 19:07:28 38° WNW 19:11:29 10° SW
Cosmos 2056 Rocket 3.7 19:04:05 10° SSW 19:09:06 72° WSW 19:09:06 72° WSW
Lacrosse 5 2.6 19:07:15 10° SW 19:10:56 49° SW 19:10:56 49° SW
Cosmos 1844 3.8 19:06:40 10° SW 19:12:19 76° WNW 19:12:19 76° WNW
COSMOS 2455 4.0 19:07:15 10° SSW 19:10:14 29° S 19:10:14 29° S
Timation 2 Rocket 3.9 19:09:29 10° SW 19:15:28 74° NW 19:15:41 73° NW
Cosmos 1833 Rocket 3.7 19:12:08 10° NNW 19:15:30 36° NNW 19:15:30 36° NNW
Cosmos 2221 4.4 19:15:37 10° SW 19:17:46 26° SW 19:17:46 26° SW
S3M 4.4 19:15:39 10° N 19:20:09 52° N 19:20:09 52° N
USA 234 3.1 19:24:56 81° N 19:25:02 81° NNW 19:31:36 10° WSW
Cosmos 1818 4.5 19:24:39 10° WSW 19:29:25 45° NW 19:29:25 45° NW
Cosmos 1844 Rocket 3.8 19:39:11 10° WSW 19:43:44 41° WNW 19:43:44 41° WNW
Cosmos 2263 Rocket 4.3 19:42:04 10° WNW 19:45:43 17° NNW 19:46:45 17° NNW
Cosmos 2082 Rocket 4.4 19:50:01 10° NNW 19:51:11 16° NNW 19:51:11 16° NNW
Cosmos 2344 4.0 19:49:37 10° WSW 19:56:44 52° NNW 19:57:06 51° NNW
